Home > Weather > Miramichi > Past weeks

Flag for Canada Weather for the Past 2 Weeks in Miramichi, New Brunswick, Canada

Now
14 °F

Clear.


Feels Like: 0 °F
Forecast: 9 / 25 °F
Wind: 12 mph from Northwest

Location: Bathurst Airport

Current Time: Feb 6, 2016 at 5:23:11 AM

Latest Report: Feb 6, 2016 at 4:00 AM


Visibility: 15 mi

Pressure: 29.96 "Hg

Humidity: 67%

Dew point: 5 °F

Location of MiramichiLocation

Historic Weather in Miramichi — Graph

°F

Miramichi Temperature Yesterday

Maximum temperature yesterday: 36 °F (at 12:00 AM)
Minimum temperature yesterday: 16 °F (at 10:00 PM)
Average temperature yesterday: 23 °F

High & Low Weather Summary for the Past Weeks

 TemperatureHumidityPressure
High46 °F (Feb 1, 3:00 PM)100% (Jan 26, 3:00 PM)30.52 "Hg (Jan 26, 3:00 PM)
Low-11 °F (Jan 24, 8:00 AM)38% (Jan 23, 3:00 PM)29.27 "Hg (Feb 1, 2:00 PM)
Average20 °F74%29.90 "Hg
* Reported Jan 22 4:00 AM — Feb 6 4:00 AM, Miramichi, Weather by CustomWeather, © 2016

Note: Actual official high and low records may vary slightly from our data, if they occured in-between our weather recording intervals... More about our weather records

Advertising

Miramichi Weather History for the Previous 24 Hours

 ConditionsComfort  
Time TempWeatherWind HumidityBarometerVisibility
4:00 AM
Sat, Feb 6
14 °FClear.12 mph67%29.96 "Hg15 mi
3:00 AM14 °FClear.12 mph73%29.94 "Hg15 mi
2:00 AM14 °FClear.13 mph73%29.93 "Hg15 mi
1:00 AM14 °FPassing clouds.14 mph73%29.92 "Hg15 mi
12:00 AM16 °FOvercast.13 mph73%29.92 "Hg15 mi
11:00 PM
Fri, Feb 5
16 °FLight snow. Overcast.12 mph79%29.93 "Hg1 mi
10:00 PM16 °FLight snow. Ice fog.13 mph86%29.91 "Hg1 mi
9:00 PM18 °FLight snow. Ice fog.8 mph86%29.93 "Hg1 mi
8:00 PM18 °FLight snow. Ice fog.9 mph93%29.97 "Hg1 mi
7:00 PM18 °FLight snow. Ice fog.6 mph93%30.01 "Hg1 mi
6:00 PM18 °FLight snow. Ice fog.7 mph93%30.01 "Hg1 mi
5:00 PM19 °FLight snow. Ice fog.3 mph86%30.00 "Hg1 mi
4:00 PM19 °FLight snow. Ice fog.5 mph79%30.01 "Hg1 mi
3:55 PM19 °FLight snow. Ice fog.2 mph86%30.02 "Hg1 mi
3:00 PM19 °FLight snow. Overcast.5 mph79%30.04 "Hg2 mi
2:00 PM21 °FLight snow. Overcast.6 mph80%30.06 "Hg1 mi
1:54 PM21 °FLight snow. Overcast.6 mph74%30.05 "Hg1 mi
1:00 PM21 °FLight snow. Overcast.3 mph63%30.10 "Hg8 mi
12:00 PM23 °FOvercast.5 mph58%30.10 "Hg15 mi
11:00 AM23 °FMostly cloudy.6 mph58%30.14 "Hg15 mi
10:00 AM23 °FOvercast.8 mph63%30.12 "Hg15 mi
9:00 AM23 °FOvercast.6 mph63%30.12 "Hg15 mi
8:00 AM23 °FMostly cloudy.7 mph68%30.13 "Hg15 mi
7:00 AM23 °FOvercast.6 mph68%30.13 "Hg15 mi
6:00 AM25 °FOvercast.6 mph69%30.11 "Hg15 mi
5:00 AM27 °FOvercast.8 mph69%30.11 "Hg15 mi
Weather by CustomWeather, © 2016

See weather overviewHow to use our weather pages